Regional Weather Roundup
Issued by NWS Burlington, VT

Home | Current Version | Previous Version | Text Only | Print | Product List | Glossary On
Versions: 1 2 3 4 5 6 7 8 9 10 11 12 13 14 15 16 17 18 19 20 21 22 23 24 25 26 27 28 29 30 31 32 33 34 35 36 37 38 39 40 41 42 43 44 45 46 47 48 49 50
028
ASUS41 KBTV 270930
RWRBTV
VERMONT REGIONAL WEATHER ROUNDUP
NATIONAL WEATHER SERVICE BURLINGTON VT
500 AM EDT THU APR 27 2017

NOTE: "FAIR" INDICATES FEW OR NO CLOUDS BELOW 12,000 FEET WITH NO
SIGNIFICANT WEATHER AND/OR OBSTRUCTIONS TO VISIBILITY.

* THESE REPORTS ARE NOT UNDER NWS QUALITY CONTROL AND/OR DO NOT
  REPORT WEATHER SUCH AS PRECIPITATION AND FOG.

VTZ001>019-271000-
_____VERMONT_____


CITY           SKY/WX    TMP DP  RH WIND       PRES   REMARKS
BURLINGTON     CLEAR     54  51  90 SW3       29.83R
MORRISVILLE    CLOUDY    53  52  96 SW3       29.86R
ST. JOHNSBURY*   N/A     54  52  93 MISG      29.85S
LYNDONVILLE*   CLOUDY    52  51  96 CALM      29.89S
MIDDLEBURY*    CLOUDY    56  53  90 CALM      29.84S
RUTLAND*       CLOUDY    55  52  89 SE3       29.86R
SPRINGFIELD    FOG       52  51  97 CALM      29.87F VSB 1/4
HIGHGATE*      FAIR      49  49 100 CALM      29.82R FOG
NEWPORT*       MOCLDY    53  52  97 CALM      29.86R
BENNINGTON     CLOUDY    54  51  90 CALM      29.85R
SUTTON*          N/A     52 N/A N/A MISG        N/A
ISLAND POND*     N/A     48 N/A N/A CALM        N/A
GALLUP MILLS*    N/A     46 N/A N/A MISG        N/A
UNION VILLAGE*   N/A     52 N/A N/A MISG        N/A
MT. MANSFIELD*   N/A     50 N/A N/A SE10        N/A

_____LAKE CHAMPLAIN_____


CITY           SKY/WX    TMP DP  RH WIND       PRES   REMARKS
BURTON ISLAND*   N/A     52  50  93 SW7         N/A
COLCHESTER RF*   N/A     48  48 100 S10         N/A
DIAMOND ISL*     N/A     54  52  94 S1          N/A

$$

NYZ007-026>031-035-052-083-087-271000-
_____NORTHERN NEW YORK_____


CITY           SKY/WX    TMP DP  RH WIND       PRES   REMARKS
PLATTSBURGH    CLEAR     45  44  97 CALM      29.81F FOG
SARANAC LAKE   FOG       41  41 100 CALM      29.82S VSB 1/4
MASSENA        FOG       53  53 100 NE7       29.80S VSB 1/4
OGDENSBURG*    FOG       53  52  97 NE3       29.78S VSB 1/2
POTSDAM*       FOG       50  50 100 CALM      29.79R VSB 1/4
STARK FALLS*     N/A     54 N/A N/A SE13        N/A
WATERTOWN      CLEAR     54  53  97 E6        29.74S
FT DRUM        CLEAR     59  55  85 SE14      29.75S
ALBANY         CLOUDY    60  54  80 CALM      29.85R
GLENS FALLS    CLOUDY    58  54  86 CALM      29.84R

$$
NHZ002-005-011-271000-
_____NEW HAMPSHIRE_____


CITY           SKY/WX    TMP DP  RH WIND       PRES   REMARKS
LEBANON        CLOUDY    55  54  96 CALM      29.86S
KEENE          CLOUDY    54  54 100 CALM      29.87R
MT WASHINGTON  FOG       43  43 100 SE16        N/A  VSB 1/8
PLYMOUTH       CLOUDY    53  52  97 CALM      29.87F FOG
WHITEFIELD     PTCLDY    47  44  90 W3        29.87S

$$

_____REGIONAL QUEBEC LOCATIONS_____


CITY           SKY/WX    TMP DP  RH WIND       PRES   REMARKS
MONTREAL       FOG       52  50  93 NE13      29.82R VSB 1/4
QUEBEC CITY    CLOUDY    41  41 100 NE9G18    29.92R FOG
SHERBROOKE     CLOUDY    50  50 100 E7        29.85F

_____REGIONAL ONTARIO LOCATIONS_____


CITY           SKY/WX    TMP DP  RH WIND       PRES   REMARKS
OTTAWA         FOG       54  54 100 E9        29.78S VSB 1/4

______KEY______
VSB  - VISIBILITY IN MILES
WCI  - WIND CHILL INDEX
HX   - HEAT INDEX
$$
NNNN




USA.gov is the U.S. government's official web portal to all federal, state and local government web resources and services.